Location: Unspecified
(43.9391°N, 0.0000°E)
Time: 04:17:14
(UTC+00:00)

Vanguard 3 - Visible Passes

Search period start: 05 April 2026 00:00
Search period end: 15 April 2026 00:00
Orbit: 508 x 3205 km, 33.3° (Epoch: 28 March)

Date Brightness Start Highest point End Pass type
(mag) Time Alt. Az. Time Alt. Az. Time Alt. Az.
5 Apr 8.5 03:09:57 28° SSE 03:10:28 28° SSE 03:17:08 10° ESE visible
6 Apr 9.8 01:52:47 10° ESE 01:52:47 10° ESE 01:52:57 10° ESE visible
6 Apr 8.4 03:56:41 24° SW 03:59:28 35° S 04:07:29 10° ESE visible
7 Apr 8.8 02:39:32 23° SE 02:39:32 23° SE 02:43:38 10° ESE visible
7 Apr 8.8 04:43:26 11° WSW 04:48:42 35° S 04:57:34 10° ESE visible
8 Apr 8.2 03:26:17 29° S 03:27:12 31° S 03:33:48 10° ESE visible
9 Apr 9.4 02:09:10 14° ESE 02:09:10 14° ESE 02:10:23 10° ESE visible
9 Apr 8.5 04:13:04 18° SW 04:16:21 31° S 04:23:40 10° ESE visible
10 Apr 8.5 02:55:58 25° SSE 02:55:58 25° SSE 03:00:22 10° ESE visible
11 Apr 8.2 03:42:49 24° SSW 03:44:06 26° S 03:50:01 10° SE visible
12 Apr 9.1 02:25:47 15° SE 02:25:47 15° SE 02:27:11 10° ESE visible
12 Apr 8.8 04:29:41 12° SW 04:33:20 22° S 04:39:08 10° SE visible
13 Apr 8.5 03:12:41 22° S 03:12:41 22° S 03:16:35 10° SE visible
14 Apr 8.5 03:59:38 16° SSW 04:01:07 18° S 04:05:23 10° SSE visible
